| time (UTC) | temp C | wind direction | speed KPH | gust KPH | rain 1hr cm | rain 24hr cm | rain mn cm | humidity % | barometer mb |
| 20260505034541 | 13 | 0 | 0.0 | 6.4 | 0.00 | 0.00 | 0.00 | 47 | 1007.3 |
| 20260505033046 | 13 | 81 | 1.6 | 8.0 | 0.00 | 0.00 | 0.00 | 45 | 1007.2 |
| 20260505031535 | 14 | 72 | 9.7 | 24.1 | 0.00 | 0.00 | 0.00 | 43 | 1007.0 |
| 20260505030036 | 15 | 49 | 12.9 | 25.7 | 0.00 | 0.00 | 0.00 | 41 | 1006.7 |
| 20260505024552 | 15 | 11 | 17.7 | 30.6 | 0.00 | 0.00 | 0.00 | 41 | 1006.5 |
| 20260505023038 | 16 | 5 | 25.7 | 40.2 | 0.00 | 0.00 | 0.00 | 39 | 1006.4 |
| 20260505021549 | 17 | 33 | 9.7 | 22.5 | 0.00 | 0.00 | 0.00 | 35 | 1006.2 |
| 20260505020044 | 18 | 136 | 17.7 | 24.1 | 0.00 | 0.00 | 0.00 | 32 | 1005.4 |
| 20260505014538 | 19 | 188 | 6.4 | 17.7 | 0.00 | 0.00 | 0.00 | 31 | 1005.2 |
| 20260505013054 | 20 | 187 | 6.4 | 12.9 | 0.00 | 0.00 | 0.00 | 31 | 1005.1 |
| 20260505011547 | 20 | 184 | 6.4 | 16.1 | 0.00 | 0.00 | 0.00 | 30 | 1005.2 |
| 20260505010044 | 21 | 203 | 8.0 | 19.3 | 0.00 | 0.00 | 0.00 | 28 | 1005.2 |
| 20260505004544 | 22 | 215 | 9.7 | 17.7 | 0.00 | 0.00 | 0.00 | 23 | 1005.3 |
| 20260505003037 | 22 | 232 | 6.4 | 20.9 | 0.00 | 0.00 | 0.00 | 26 | 1005.5 |
| 20260505001537 | 22 | 261 | 8.0 | 20.9 | 0.00 | 0.00 | 0.00 | 23 | 1005.6 |
| 20260505000035 | 22 | 198 | 9.7 | 20.9 | 0.00 | 0.00 | 0.00 | 25 | 1005.7 |
| 20260504234542 | 20 | 243 | 6.4 | 38.6 | 0.00 | 0.00 | 0.00 | 28 | 1005.7 |
| 20260504233054 | 20 | 263 | 27.4 | 38.6 | 0.00 | 0.00 | 0.00 | 26 | 1005.5 |
| 20260504231539 | 22 | 283 | 14.5 | 24.1 | 0.00 | 0.00 | 0.00 | 26 | 1005.4 |
| 20260504230037 | 22 | 282 | 8.0 | 17.7 | 0.00 | 0.00 | 0.00 | 24 | 1005.4 |
| 20260504224535 | 23 | 308 | 12.9 | 22.5 | 0.00 | 0.00 | 0.00 | 23 | 1005.6 |
| 20260504223044 | 22 | 242 | 6.4 | 22.5 | 0.00 | 0.00 | 0.00 | 26 | 1005.7 |
| 20260504221536 | 21 | 257 | 12.9 | 25.7 | 0.00 | 0.00 | 0.00 | 27 | 1005.8 |
| 20260504220058 | 22 | 286 | 4.8 | 16.1 | 0.00 | 0.00 | 0.00 | 24 | 1006.0 |
| 20260504214539 | 22 | 256 | 8.0 | 20.9 | 0.00 | 0.00 | 0.00 | 24 | 1006.3 |
| 20260504213036 | 23 | 257 | 8.0 | 27.4 | 0.00 | 0.00 | 0.00 | 26 | 1006.8 |
| 20260504211535 | 20 | 283 | 14.5 | 25.7 | 0.00 | 0.00 | 0.00 | 30 | 1006.9 |
| 20260504210035 | 20 | 319 | 8.0 | 16.1 | 0.00 | 0.00 | 0.00 | 29 | 1007.2 |
| 20260504204556 | 21 | 355 | 6.4 | 16.1 | 0.00 | 0.00 | 0.00 | 25 | 1007.2 |
| 20260504203038 | 21 | 18 | 6.4 | 16.1 | 0.00 | 0.00 | 0.00 | 32 | 1007.3 |
| 20260504201537 | 21 | 342 | 8.0 | 27.4 | 0.00 | 0.00 | 0.00 | 26 | 1007.5 |
| 20260504200042 | 22 | 286 | 4.8 | 24.1 | 0.00 | 0.00 | 0.00 | 26 | 1007.4 |
| 20260504194540 | 22 | 319 | 12.9 | 24.1 | 0.00 | 0.00 | 0.00 | 26 | 1007.6 |
| 20260504193037 | 22 | 299 | 12.9 | 20.9 | 0.00 | 0.00 | 0.00 | 26 | 1008.0 |
| 20260504191547 | 21 | 264 | 9.7 | 20.9 | 0.00 | 0.00 | 0.00 | 28 | 1007.9 |
| 20260504190039 | 21 | 314 | 8.0 | 25.7 | 0.00 | 0.00 | 0.00 | 30 | 1008.2 |
| 20260504184537 | 21 | 250 | 11.3 | 22.5 | 0.00 | 0.00 | 0.00 | 29 | 1008.3 |
| 20260504183036 | 21 | 239 | 11.3 | 30.6 | 0.00 | 0.00 | 0.00 | 31 | 1008.8 |
| 20260504181543 | 21 | 242 | 9.7 | 22.5 | 0.00 | 0.00 | 0.00 | 32 | 1008.8 |
| 20260504180039 | 20 | 252 | 11.3 | 20.9 | 0.00 | 0.00 | 0.00 | 33 | 1009.0 |
| 20260504174538 | 20 | 250 | 12.9 | 27.4 | 0.00 | 0.00 | 0.00 | 31 | 1009.0 |
| 20260504173035 | 19 | 234 | 9.7 | 20.9 | 0.00 | 0.00 | 0.00 | 31 | 1009.1 |
| 20260504171535 | 18 | 284 | 4.8 | 14.5 | 0.00 | 0.00 | 0.00 | 36 | 1009.2 |
| 20260504081548 | 5 | 81 | 1.6 | 6.4 | 0.00 | 0.00 | 0.00 | 57 | 1010.1 |
| 20260504044535 | 11 | 107 | 4.8 | 9.7 | 0.00 | 0.00 | 0.00 | 44 | 1010.8 |
| 20260504043044 | 11 | 74 | 4.8 | 11.3 | 0.00 | 0.00 | 0.00 | 43 | 1010.7 |
| 20260504041540 | 12 | 108 | 11.3 | 16.1 | 0.00 | 0.00 | 0.00 | 44 | 1010.7 |
| 20260504040040 | 12 | 136 | 14.5 | 20.9 | 0.00 | 0.00 | 0.00 | 43 | 1010.7 |